This is the latest recevied weather packets stored in our database for station/object KC4GS-13. If no packets are shown the sender has not sent any weather packets the latest 10 day(s).
| Time | Temp. | Humidity | Pressure | Rain* | Wind** | Luminosity | Snow |
|---|---|---|---|---|---|---|---|
| 1778168770 | 20° C | 99% | 1012.5 hPa | 4.83 mm | - | 138 W/m² | - |
| 1778168467 | 19.44° C | 99% | 1012.8 hPa | 7.11 mm | - | 171 W/m² | - |
| 1778168164 | 19.44° C | 99% | 1013 hPa | 10.67 mm | - | 111 W/m² | - |
| 1778167860 | 19.44° C | 99% | 1012.9 hPa | 1.78 mm | - | 88 W/m² | - |
| 1778167555 | 19.44° C | 99% | 1012.8 hPa | 0 mm | - | 72 W/m² | - |
| 1778167247 | 19.44° C | 99% | 1012.5 hPa | 1.27 mm | - | 62 W/m² | - |
| 1778166943 | 19.44° C | 99% | 1012.2 hPa | 1.27 mm | - | 91 W/m² | - |
| 1778166640 | 19.44° C | 99% | 1012.3 hPa | 0 mm | - | 57 W/m² | - |
| 1778166337 | 18.89° C | 99% | 1012.2 hPa | 0 mm | - | 142 W/m² | - |
| 1778166034 | 18.89° C | 99% | 1012.3 hPa | 3.05 mm | - | 120 W/m² | - |
| 1778165728 | 18.89° C | 99% | 1012 hPa | 4.83 mm | - | 98 W/m² | - |
| 1778165427 | 18.89° C | 99% | 1012.3 hPa | 4.83 mm | - | 84 W/m² | - |
| 1778165123 | 18.89° C | 99% | 1012.5 hPa | 6.1 mm | - | 50 W/m² | - |
| 1778164821 | 18.89° C | 99% | 1012.1 hPa | 13.72 mm | - | 43 W/m² | - |
| 1778164517 | 18.89° C | 99% | 1012.6 hPa | 15.49 mm | - | 35 W/m² | - |
| 1778164209 | 19.44° C | 99% | 1012.4 hPa | 10.16 mm | - | 17 W/m² | - |
| 1778163904 | 20° C | 99% | 1012.1 hPa | 1.27 mm | - | 3 W/m² | - |
| 1778163602 | 20° C | 99% | 1012.3 hPa | 0 mm | - | 1 W/m² | - |
| 1778163297 | 20° C | 99% | 1011.2 hPa | 0 mm | - | 4 W/m² | - |
| 1778162994 | 20° C | 99% | 1010.9 hPa | 1.78 mm | - | 9 W/m² | - |
| 1778162691 | 20° C | 99% | 1010.8 hPa | 7.87 mm | - | 23 W/m² | - |
| 1778162388 | 20° C | 99% | 1011.1 hPa | 109.73 mm | - | 11 W/m² | - |
| 1778162085 | 20° C | 99% | 1011.4 hPa | 104.9 mm | - | 17 W/m² | - |
| 1778161782 | 20° C | 99% | 1011.7 hPa | 6.1 mm | - | 18 W/m² | - |
| 1778161478 | 20° C | 99% | 1011.7 hPa | 29.46 mm | - | 16 W/m² | - |
* Rain latest hour (hover to see other rain measurements)
** Current wind speed in m/s (hover to see current wind gust speed)